Location: Isola Pescaroli
(45.0500°N, 10.1667°E)
Time: 21:09:53
(UTC+00:00)

Cosmos 2333 - Pass Details

Date: 03 March 2021
Orbit: 829 x 866 km, 70.9° (Epoch: 17 April)

Event Time Altitude Azimuth Distance (km) Brightness Sun altitude
Rises 18:29:45 0° 185° (S) 3,369 7.3 -14.9°
Reaches altitude 10° 18:32:15 10° 179° (S) 2,444 6.5 -15.4°
Maximum altitude 18:37:34 46° 108° (ESE) 1,122 4.4 -16.3°
Drops below altitude 10° 18:42:58 10° 37° (NE) 2,484 6.4 -17.3°
Sets 18:45:31 0° 31° (NNE) 3,430 7.1 -17.7°
